Time,TemperatureF,DewpointF,PressureIn,WindDirection,WindDirectionDegrees,WindSpeedMPH,WindSpeedGustMPH,Humidity,HourlyPrecipIn,Conditions,Clouds,dailyrainin,SolarRadiationWatts/m^2,SoftwareType,DateUTC
2013-12-28 00:02:00,50.0,17.0,-100.00,WSW,255,13.0,26.0,27,0.00,,,0.00,0.000000,,2013-12-28 07:02:00,
2013-12-28 00:11:00,50.0,17.0,-100.00,WSW,255,13.0,26.0,27,0.00,,,0.00,0.000000,,2013-12-28 07:11:00,
2013-12-28 00:22:00,50.0,17.0,-100.00,WSW,255,13.0,26.0,27,0.00,,,0.00,0.000000,,2013-12-28 07:22:00,
2013-12-28 00:30:00,49.0,19.0,-100.00,West,272,14.0,31.0,30,0.00,,,0.00,0.000000,,2013-12-28 07:30:00,
2013-12-28 00:52:00,49.0,19.0,-100.00,West,272,14.0,31.0,30,0.00,,,0.00,0.000000,,2013-12-28 07:52:00,
2013-12-28 01:02:00,49.0,19.0,-100.00,West,272,14.0,31.0,30,0.00,,,0.00,0.000000,,2013-12-28 08:02:00,
2013-12-28 01:11:00,49.0,19.0,-100.00,West,272,14.0,31.0,30,0.00,,,0.00,0.000000,,2013-12-28 08:11:00,
2013-12-28 01:22:00,49.0,19.0,-100.00,West,272,14.0,31.0,30,0.00,,,0.00,0.000000,,2013-12-28 08:22:00,
2013-12-28 01:30:00,46.0,21.0,-100.00,West,280,15.0,31.0,37,0.00,,,0.00,0.000000,,2013-12-28 08:30:00,
2013-12-28 01:52:00,46.0,21.0,-100.00,West,280,15.0,31.0,37,0.00,,,0.00,0.000000,,2013-12-28 08:52:00,
2013-12-28 02:02:00,46.0,21.0,-100.00,West,280,15.0,31.0,37,0.00,,,0.00,0.000000,,2013-12-28 09:02:00,
2013-12-28 02:11:00,46.0,21.0,-100.00,West,280,15.0,31.0,37,0.00,,,0.00,0.000000,,2013-12-28 09:11:00,
2013-12-28 02:21:00,46.0,21.0,-100.00,West,280,15.0,31.0,37,0.00,,,0.00,0.000000,,2013-12-28 09:21:00,
2013-12-28 02:30:00,43.0,21.0,-100.00,WSW,244,8.0,20.0,41,0.00,,,0.00,0.000000,,2013-12-28 09:30:00,
2013-12-28 02:53:00,43.0,21.0,-100.00,WSW,244,8.0,20.0,41,0.00,,,0.00,0.000000,,2013-12-28 09:53:00,
2013-12-28 03:03:00,43.0,21.0,-100.00,WSW,244,8.0,20.0,41,0.00,,,0.00,0.000000,,2013-12-28 10:03:00,
2013-12-28 03:12:00,43.0,21.0,-100.00,WSW,244,8.0,20.0,41,0.00,,,0.00,0.000000,,2013-12-28 10:12:00,
2013-12-28 03:22:00,43.0,21.0,-100.00,WSW,244,8.0,20.0,41,0.00,,,0.00,0.000000,,2013-12-28 10:22:00,
2013-12-28 03:30:00,22.0,13.0,-100.00,ENE,67,15.0,29.0,69,-99.99,,,-99.99,0.000000,,2013-12-28 10:30:00,
2013-12-28 03:53:00,22.0,13.0,-100.00,ENE,67,15.0,29.0,69,-99.99,,,-99.99,0.000000,,2013-12-28 10:53:00,
2013-12-28 04:02:00,22.0,13.0,-100.00,ENE,67,15.0,29.0,69,-99.99,,,-99.99,0.000000,,2013-12-28 11:02:00,
2013-12-28 04:11:00,22.0,13.0,-100.00,ENE,67,15.0,29.0,69,-99.99,,,-99.99,0.000000,,2013-12-28 11:11:00,
2013-12-28 04:22:00,22.0,13.0,-100.00,ENE,67,15.0,29.0,69,-99.99,,,-99.99,0.000000,,2013-12-28 11:22:00,
2013-12-28 04:30:00,17.0,6.0,-100.00,East,83,15.0,24.0,62,0.00,,,0.00,0.000000,,2013-12-28 11:30:00,
2013-12-28 04:52:00,17.0,6.0,-100.00,East,83,15.0,24.0,62,0.00,,,0.00,0.000000,,2013-12-28 11:52:00,
2013-12-28 05:02:00,17.0,6.0,-100.00,East,83,15.0,24.0,62,0.00,,,0.00,0.000000,,2013-12-28 12:02:00,
2013-12-28 05:11:00,17.0,6.0,-100.00,East,83,15.0,24.0,62,0.00,,,0.00,0.000000,,2013-12-28 12:11:00,
2013-12-28 05:23:00,17.0,6.0,-100.00,East,83,15.0,24.0,62,0.00,,,0.00,0.000000,,2013-12-28 12:23:00,
2013-12-28 05:30:00,15.0,3.0,-100.00,ENE,57,7.0,24.0,59,0.00,,,0.00,0.000000,,2013-12-28 12:30:00,
2013-12-28 05:52:00,15.0,3.0,-100.00,ENE,57,7.0,24.0,59,0.00,,,0.00,0.000000,,2013-12-28 12:52:00,
2013-12-28 06:01:00,15.0,3.0,-100.00,ENE,57,7.0,24.0,59,0.00,,,0.00,0.000000,,2013-12-28 13:01:00,
2013-12-28 06:12:00,15.0,3.0,-100.00,ENE,57,7.0,24.0,59,0.00,,,0.00,0.000000,,2013-12-28 13:12:00,
2013-12-28 06:21:00,15.0,3.0,-100.00,ENE,57,7.0,24.0,59,0.00,,,0.00,0.000000,,2013-12-28 13:21:00,
2013-12-28 06:30:00,14.0,3.0,-100.00,ENE,69,9.0,17.0,62,0.00,,,0.00,0.000000,,2013-12-28 13:30:00,
2013-12-28 06:52:00,14.0,3.0,-100.00,ENE,69,9.0,17.0,62,0.00,,,0.00,0.000000,,2013-12-28 13:52:00,
2013-12-28 07:02:00,14.0,3.0,-100.00,ENE,69,9.0,17.0,62,0.00,,,0.00,0.000000,,2013-12-28 14:02:00,
2013-12-28 07:12:00,14.0,3.0,-100.00,ENE,69,9.0,17.0,62,0.00,,,0.00,0.000000,,2013-12-28 14:12:00,
2013-12-28 07:21:00,14.0,3.0,-100.00,ENE,69,9.0,17.0,62,0.00,,,0.00,0.000000,,2013-12-28 14:21:00,
2013-12-28 07:30:00,13.0,4.0,-100.00,East,83,8.0,15.0,68,0.00,,,0.00,0.000000,,2013-12-28 14:30:00,
2013-12-28 07:53:00,13.0,4.0,-100.00,East,83,8.0,15.0,68,0.00,,,0.00,0.000000,,2013-12-28 14:53:00,
2013-12-28 08:02:00,13.0,4.0,-100.00,East,83,8.0,15.0,68,0.00,,,0.00,0.000000,,2013-12-28 15:02:00,
2013-12-28 08:12:00,13.0,4.0,-100.00,East,83,8.0,15.0,68,0.00,,,0.00,0.000000,,2013-12-28 15:12:00,
2013-12-28 08:21:00,13.0,4.0,-100.00,East,83,8.0,15.0,68,0.00,,,0.00,0.000000,,2013-12-28 15:21:00,
2013-12-28 08:30:00,12.0,4.0,-100.00,ENE,71,7.0,14.0,71,0.00,,,0.00,1.000000,,2013-12-28 15:30:00,
2013-12-28 08:53:00,12.0,4.0,-100.00,ENE,71,7.0,14.0,71,0.00,,,0.00,1.000000,,2013-12-28 15:53:00,
2013-12-28 09:03:00,12.0,4.0,-100.00,ENE,71,7.0,14.0,71,0.00,,,0.00,1.000000,,2013-12-28 16:03:00,
2013-12-28 09:13:00,12.0,4.0,-100.00,ENE,71,7.0,14.0,71,0.00,,,0.00,1.000000,,2013-12-28 16:13:00,
2013-12-28 09:23:00,12.0,4.0,-100.00,ENE,71,7.0,14.0,71,0.00,,,0.00,1.000000,,2013-12-28 16:23:00,
2013-12-28 09:30:00,13.0,4.0,-100.00,ENE,69,6.0,10.0,68,0.00,,,0.00,25.000000,,2013-12-28 16:30:00,
2013-12-28 09:53:00,13.0,4.0,-100.00,ENE,69,6.0,10.0,68,0.00,,,0.00,25.000000,,2013-12-28 16:53:00,
2013-12-28 10:02:00,13.0,4.0,-100.00,ENE,69,6.0,10.0,68,0.00,,,0.00,25.000000,,2013-12-28 17:02:00,
2013-12-28 10:12:00,13.0,4.0,-100.00,ENE,69,6.0,10.0,68,0.00,,,0.00,25.000000,,2013-12-28 17:12:00,
2013-12-28 10:22:00,13.0,4.0,-100.00,ENE,69,6.0,10.0,68,0.00,,,0.00,25.000000,,2013-12-28 17:22:00,
2013-12-28 10:30:00,14.0,5.0,-100.00,East,83,5.0,8.0,67,0.00,,,0.00,69.000000,,2013-12-28 17:30:00,
2013-12-28 10:52:00,14.0,5.0,-100.00,East,83,5.0,8.0,67,0.00,,,0.00,69.000000,,2013-12-28 17:52:00,
2013-12-28 11:02:00,14.0,5.0,-100.00,East,83,5.0,8.0,67,0.00,,,0.00,69.000000,,2013-12-28 18:02:00,
2013-12-28 11:12:00,14.0,5.0,-100.00,East,83,5.0,8.0,67,0.00,,,0.00,69.000000,,2013-12-28 18:12:00,
2013-12-28 11:22:00,14.0,5.0,-100.00,East,83,5.0,8.0,67,0.00,,,0.00,69.000000,,2013-12-28 18:22:00,
2013-12-28 11:30:00,15.0,5.0,-100.00,ESE,107,6.0,9.0,65,0.00,,,0.00,87.000000,,2013-12-28 18:30:00,
2013-12-28 11:52:00,15.0,5.0,-100.00,ESE,107,6.0,9.0,65,0.00,,,0.00,87.000000,,2013-12-28 18:52:00,
2013-12-28 12:02:00,15.0,5.0,-100.00,ESE,107,6.0,9.0,65,0.00,,,0.00,87.000000,,2013-12-28 19:02:00,
2013-12-28 12:11:00,15.0,5.0,-100.00,ESE,107,6.0,9.0,65,0.00,,,0.00,87.000000,,2013-12-28 19:11:00,
2013-12-28 12:21:00,15.0,5.0,-100.00,ESE,107,6.0,9.0,65,0.00,,,0.00,87.000000,,2013-12-28 19:21:00,
2013-12-28 12:30:00,17.0,6.0,-100.00,NNW,333,2.0,9.0,62,0.00,,,0.00,162.000000,,2013-12-28 19:30:00,
2013-12-28 12:52:00,17.0,6.0,-100.00,NNW,333,2.0,9.0,62,0.00,,,0.00,162.000000,,2013-12-28 19:52:00,
2013-12-28 13:02:00,17.0,6.0,-100.00,NNW,333,2.0,9.0,62,0.00,,,0.00,162.000000,,2013-12-28 20:02:00,
2013-12-28 13:11:00,17.0,6.0,-100.00,NNW,333,2.0,9.0,62,0.00,,,0.00,162.000000,,2013-12-28 20:11:00,
2013-12-28 13:22:00,17.0,6.0,-100.00,NNW,333,2.0,9.0,62,0.00,,,0.00,162.000000,,2013-12-28 20:22:00,
2013-12-28 13:30:00,17.0,7.0,-100.00,WNW,300,7.0,9.0,63,0.00,,,0.00,105.000000,,2013-12-28 20:30:00,
2013-12-28 13:52:00,17.0,7.0,-100.00,WNW,300,7.0,9.0,63,0.00,,,0.00,105.000000,,2013-12-28 20:52:00,
2013-12-28 14:02:00,17.0,7.0,-100.00,WNW,300,7.0,9.0,63,0.00,,,0.00,105.000000,,2013-12-28 21:02:00,
2013-12-28 14:12:00,17.0,7.0,-100.00,WNW,300,7.0,9.0,63,0.00,,,0.00,105.000000,,2013-12-28 21:12:00,
2013-12-28 14:21:00,17.0,7.0,-100.00,WNW,300,7.0,9.0,63,0.00,,,0.00,105.000000,,2013-12-28 21:21:00,
2013-12-28 14:30:00,19.0,8.0,-100.00,NW,321,6.0,11.0,62,0.00,,,0.00,84.000000,,2013-12-28 21:30:00,
2013-12-28 14:53:00,19.0,8.0,-100.00,NW,321,6.0,11.0,62,0.00,,,0.00,84.000000,,2013-12-28 21:53:00,
2013-12-28 15:02:00,19.0,8.0,-100.00,NW,321,6.0,11.0,62,0.00,,,0.00,84.000000,,2013-12-28 22:02:00,
2013-12-28 15:12:00,19.0,8.0,-100.00,NW,321,6.0,11.0,62,0.00,,,0.00,84.000000,,2013-12-28 22:12:00,
2013-12-28 15:23:00,19.0,8.0,-100.00,NW,321,6.0,11.0,62,0.00,,,0.00,84.000000,,2013-12-28 22:23:00,
2013-12-28 15:30:00,21.0,9.0,-100.00,NW,319,6.0,11.0,59,0.00,,,0.00,84.000000,,2013-12-28 22:30:00,
2013-12-28 15:52:00,21.0,9.0,-100.00,NW,319,6.0,11.0,59,0.00,,,0.00,84.000000,,2013-12-28 22:52:00,
2013-12-28 16:03:00,21.0,9.0,-100.00,NW,319,6.0,11.0,59,0.00,,,0.00,84.000000,,2013-12-28 23:03:00,
2013-12-28 16:11:00,21.0,9.0,-100.00,NW,319,6.0,11.0,59,0.00,,,0.00,84.000000,,2013-12-28 23:11:00,
2013-12-28 16:22:00,21.0,9.0,-100.00,NW,319,6.0,11.0,59,0.00,,,0.00,84.000000,,2013-12-28 23:22:00,
2013-12-28 16:30:00,22.0,9.0,-100.00,West,260,6.0,8.0,57,0.00,,,0.00,70.000000,,2013-12-28 23:30:00,
2013-12-28 16:53:00,22.0,9.0,-100.00,West,260,6.0,8.0,57,0.00,,,0.00,70.000000,,2013-12-28 23:53:00,
2013-12-28 17:02:00,22.0,9.0,-100.00,West,260,6.0,8.0,57,0.00,,,0.00,70.000000,,2013-12-29 00:02:00,
2013-12-28 17:11:00,22.0,9.0,-100.00,West,260,6.0,8.0,57,0.00,,,0.00,70.000000,,2013-12-29 00:11:00,
2013-12-28 17:22:00,22.0,9.0,-100.00,West,260,6.0,8.0,57,0.00,,,0.00,70.000000,,2013-12-29 00:22:00,
2013-12-28 17:30:00,22.0,10.0,-100.00,WSW,256,6.0,8.0,60,0.00,,,0.00,3.000000,,2013-12-29 00:30:00,
2013-12-28 17:52:00,22.0,10.0,-100.00,WSW,256,6.0,8.0,60,0.00,,,0.00,3.000000,,2013-12-29 00:52:00,
2013-12-28 18:02:00,22.0,10.0,-100.00,WSW,256,6.0,8.0,60,0.00,,,0.00,3.000000,,2013-12-29 01:02:00,
2013-12-28 18:11:00,22.0,10.0,-100.00,WSW,256,6.0,8.0,60,0.00,,,0.00,3.000000,,2013-12-29 01:11:00,
2013-12-28 18:21:00,22.0,10.0,-100.00,WSW,256,6.0,8.0,60,0.00,,,0.00,3.000000,,2013-12-29 01:21:00,
2013-12-28 18:30:00,22.0,10.0,-100.00,West,262,7.0,9.0,60,0.00,,,0.00,0.000000,,2013-12-29 01:30:00,
2013-12-28 18:52:00,22.0,10.0,-100.00,West,262,7.0,9.0,60,0.00,,,0.00,0.000000,,2013-12-29 01:52:00,
2013-12-28 19:01:00,22.0,10.0,-100.00,West,262,7.0,9.0,60,0.00,,,0.00,0.000000,,2013-12-29 02:01:00,
2013-12-28 19:11:00,22.0,10.0,-100.00,West,262,7.0,9.0,60,0.00,,,0.00,0.000000,,2013-12-29 02:11:00,
2013-12-28 19:22:00,22.0,10.0,-100.00,West,262,7.0,9.0,60,0.00,,,0.00,0.000000,,2013-12-29 02:22:00,
2013-12-28 19:30:00,24.0,12.0,-100.00,West,271,6.0,12.0,60,0.00,,,0.00,0.000000,,2013-12-29 02:30:00,
2013-12-28 19:52:00,24.0,12.0,-100.00,West,271,6.0,12.0,60,0.00,,,0.00,0.000000,,2013-12-29 02:52:00,
2013-12-28 20:02:00,24.0,12.0,-100.00,West,271,6.0,12.0,60,0.00,,,0.00,0.000000,,2013-12-29 03:02:00,
2013-12-28 20:11:00,24.0,12.0,-100.00,West,271,6.0,12.0,60,0.00,,,0.00,0.000000,,2013-12-29 03:11:00,
2013-12-28 20:21:00,24.0,12.0,-100.00,West,271,6.0,12.0,60,0.00,,,0.00,0.000000,,2013-12-29 03:21:00,
2013-12-28 20:30:00,25.0,13.0,-100.00,West,267,7.0,12.0,61,0.00,,,0.00,0.000000,,2013-12-29 03:30:00,
2013-12-28 20:53:00,25.0,13.0,-100.00,West,267,7.0,12.0,61,0.00,,,0.00,0.000000,,2013-12-29 03:53:00,
2013-12-28 21:02:00,-999.0,-99.9,-100.00,West,267,7.0,12.0,-999,0.00,,,0.00,0.000000,,2013-12-29 04:02:00,
2013-12-28 21:13:00,25.0,13.0,-100.00,West,267,7.0,12.0,61,0.00,,,0.00,0.000000,,2013-12-29 04:13:00,
2013-12-28 21:22:00,25.0,13.0,-100.00,West,267,7.0,12.0,61,0.00,,,0.00,0.000000,,2013-12-29 04:22:00,
2013-12-28 21:30:00,22.0,11.0,-100.00,ESE,110,10.0,12.0,62,0.00,,,0.00,0.000000,,2013-12-29 04:30:00,
2013-12-28 21:53:00,22.0,11.0,-100.00,ESE,110,10.0,12.0,62,0.00,,,0.00,0.000000,,2013-12-29 04:53:00,
2013-12-28 22:02:00,22.0,11.0,-100.00,ESE,110,10.0,12.0,62,0.00,,,0.00,0.000000,,2013-12-29 05:02:00,
2013-12-28 22:12:00,22.0,11.0,-100.00,ESE,110,10.0,12.0,62,0.00,,,0.00,0.000000,,2013-12-29 05:12:00,
2013-12-28 22:23:00,22.0,11.0,-100.00,ESE,110,10.0,12.0,62,0.00,,,0.00,0.000000,,2013-12-29 05:23:00,
2013-12-28 22:30:00,20.0,11.0,-100.00,East,79,10.0,14.0,67,0.00,,,0.00,0.000000,,2013-12-29 05:30:00,
2013-12-28 22:53:00,20.0,11.0,-100.00,East,79,10.0,14.0,67,0.00,,,0.00,0.000000,,2013-12-29 05:53:00,
2013-12-28 23:02:00,20.0,11.0,-100.00,East,79,10.0,14.0,67,0.00,,,0.00,0.000000,,2013-12-29 06:02:00,
2013-12-28 23:12:00,20.0,11.0,-100.00,East,79,10.0,14.0,67,0.00,,,0.00,0.000000,,2013-12-29 06:12:00,
2013-12-28 23:22:00,20.0,11.0,-100.00,East,79,10.0,14.0,67,0.00,,,0.00,0.000000,,2013-12-29 06:22:00,
2013-12-28 23:30:00,18.0,9.0,-100.00,ENE,69,10.0,16.0,68,0.00,,,0.00,0.000000,,2013-12-29 06:30:00,
2013-12-28 23:52:00,18.0,9.0,-100.00,ENE,69,10.0,16.0,68,0.00,,,0.00,0.000000,,2013-12-29 06:52:00,